Home > Weather > McAllen > Past weeks

Flag for USA Past Weather in McAllen, Texas, USA — Yesterday and Last 2 Weeks

Now
96 °F

Sunny.


Feels Like: 103 °F
Forecast: 78 / 96 °F
Wind: 21 mph from Southeast

Location: Miller International Airport

Current Time: Jun 24, 2016 at 6:55:24 PM

Latest Report: Jun 24, 2016 at 5:53 PM


Visibility: 10 mi

Pressure: 29.91 "Hg

Humidity: 43%

Dew Point: 70 °F

Location of McAllenLocation

Past Weather in McAllen — Graph

°F

McAllen Temperature Yesterday

Maximum temperature yesterday: 98 °F (at 3:53 PM)
Minimum temperature yesterday: 74 °F (at 5:53 AM)
Average temperature yesterday: 85 °F

High & Low Weather Summary for the Past Weeks

 TemperatureHumidityPressure
High100 °F (Jun 17, 3:53 PM)94% (Jun 22, 5:53 AM)30.15 "Hg (Jun 22, 5:53 AM)
Low74 °F (Jun 23, 5:53 AM)34% (Jun 24, 3:53 PM)29.78 "Hg (Jun 14, 5:53 PM)
Average87 °F69%29.95 "Hg
* Reported Jun 9 4:53 PM — Jun 24 4:53 PM, McAllen, Weather by CustomWeather, © 2016

Note: Actual official high and low records may vary slightly from our data, if they occured in-between our weather recording intervals... More about our weather records

Advertising

McAllen Weather History for the Previous 24 Hours

Scroll right to see more
 ConditionsComfort  
Time TempWeatherWind HumidityBarometerVisibility
4:53 PM
Fri, Jun 24
98 °FScattered clouds.18 mph38%29.92 "Hg10 mi
3:53 PM99 °FSunny.18 mph34%29.93 "Hg10 mi
2:53 PM98 °FPassing clouds.18 mph42%29.95 "Hg10 mi
1:53 PM96 °FSunny.10 mph40%29.97 "Hg10 mi
12:53 PM95 °FPassing clouds.13 mph43%29.99 "Hg10 mi
11:53 AM93 °FSunny.15 mph49%30.01 "Hg10 mi
10:53 AM91 °FScattered clouds.18 mph56%30.01 "Hg10 mi
9:53 AM86 °FScattered clouds.18 mph70%30.01 "Hg10 mi
8:53 AM80 °FSunny.9 mph85%30.01 "Hg10 mi
8:00 AM78 °FSunny.8 mph90%30.01 "Hg9 mi
6:53 AM78 °FClear.8 mph87%29.98 "Hg10 mi
5:53 AM78 °FClear.5 mph87%29.97 "Hg10 mi
4:53 AM77 °FClear.5 mph88%29.97 "Hg10 mi
3:53 AM79 °FClear.7 mph84%29.96 "Hg10 mi
2:53 AM79 °FClear.8 mph84%29.96 "Hg10 mi
1:53 AM80 °FClear.9 mph81%29.98 "Hg10 mi
12:53 AM81 °FClear.13 mph79%29.98 "Hg10 mi
11:53 PM
Thu, Jun 23
82 °FClear.14 mph77%29.99 "Hg10 mi
10:53 PM82 °FClear.12 mph74%29.99 "Hg10 mi
9:53 PM84 °FClear.13 mph70%29.97 "Hg10 mi
8:53 PM86 °FSunny.17 mph61%29.96 "Hg10 mi
7:53 PM89 °FSunny.16 mph53%29.94 "Hg10 mi
6:53 PM93 °FSunny.17 mph46%29.93 "Hg10 mi
Weather by CustomWeather, © 2016

See weather overviewHow to use our weather pages